Погода в Караганде

Погода в Караганде : погода сейчас, прогноз погоды и архив. Всё, что Вы хотите узнать о погоде в Караганде!

Поиск расширенной информации на нашем сайте:

Другие новости

Новости СМИ2

Главная страница сайта

Новости сайта

03.07.2017

Напоминаем, что на нашем специализированном сайте Метеоцентр.Азия вы можете получить высокодетализированные автоматические прогнозы погоды по пунктам России, СНГ и мира в авиационном формате (включающие направление и скорость ветра, видимость, явления погоды, количество и форму облачности, нижнюю и верхнюю границу облачности).


Погода в Караганде - сегодня

Время (UTC), дата Ветер
(°,м/с) 
Видим.   Явления Облачность Т
(°С)
Тd
(°С)
f(%) Тe
(°С)
Pmin
(гПа)
dP
(гПа)
Po
(мм)
O2
(г/м3)
Тmin Tmax R s Состояние
почвы
18 17.04.18 020 (С) 20000 м    9/4 1000 м средняя, верхняя 
[Sc|Ac trans|Ci fib]
+1.8 -1.8 77 1016.6  0.4  712  285    +10.7       
21 17.04.18 020 (С) 20000 м    10/5 1000 м средняя, верхняя 
[Sc|Ac trans|Cs]
-0.5 -2.6 86 -3  1017.6  0.4  713  288           
00 18.04.18 010 (С) 4000 м  дымка  10/0 средняя, верхняя 
[Ac trans|Cs]
-2.5 -4.1 89 -4  1019.1  0.9  713  290           
03 18.04.18 180 (Ю) 20000 м    9/0 верхняя 
[Ci sp]
+1.5 -2.5 75 +2  1019.1  714  286           
06 18.04.18 280 (З) 20000 м    5/3 1000 м верхняя 
[Cu hum|Ci fib]
+6.3 -5.2 44 +5  1018.9  0.9  715  282  -2.5         
09 18.04.18 330 (СЗ) 20000 м    8/8 1000 м верхняя 
[Cu med, cong|Ci fib]
+8.4 -6.2 35 +8  1017.9  -0.5  714  280           
12 18.04.18 360 (С) 20000 м    9/3 600 м кучево-дожд., верхняя 
[Cb cap|Cs]
+8.6 -5.4 37 +8  1017  -0.8  714  279           
15 18.04.18 170 (Ю) 20000 м  в посл. час ливневой дождь  8/8 600 м кучево-дожд. 
[Cb cap]
+4.8 +0.2 72 +4  1017.6  -0.3  714  282    +10.3       
18 18.04.18 160 (Ю) 4000 м  слаб. ливневой дождь  10/10 600 м кучево-дожд. 
[Cb cap]
+3.8 +2.6 92 +3  1015  -2.5  712  282    +1  0.0     
21 18.04.18 200 (Ю) 20000 м  {ливн. осадки}  8/8 600 м кучево-дожд. 
[Cb cap]
+4.5 +2.1 84 +3  1012.7  -2  710  281           
00 19.04.18 240 (ЮЗ) 20000 м  {ливн. осадки}  4/4 600 м кучево-дожд. 
[Cb cap]
+2.5 -1.6 74 1012.7  -0.5  710  283           
03 19.04.18 250 (З) 2000 м  в посл. час ливневой дождь  10/10 600 м кучево-дожд. 
[Cb cap]
+0 -0.6 96 -3  1013.9  0.5  710  286           
06 19.04.18 340 (С) 10 км  слаб. ливневой снег  10/10 600 м кучево-дожд. 
[Cb cap]
-1.1 -3.3 85 -5  1019.7  5.1  714  289  +0       
09 19.04.18 350 (С) 20000 м  {ливн. осадки}  9/9 600 м кучево-дожд. 
[Cb cap]
+1.9 -2.7 72 +1  1021  716  287           
12 19.04.18 250 (З) 20000 м  {ливн. осадки}  9/9 600 м кучево-дожд. 
[Cb cap]
+3.4 -4.2 57 +4  1021.5  0.8  716  285           
15 19.04.18 180 (Ю) 20000 м    8/8 600 м кучево-дожд. 
[Cb cap]
+2.5 -2.9 67 +3  1022.7  0.9  717  286    +3.7       
18 19.04.18 200 (Ю) 20000 м    ясно 
-0.2 -3.2 80 1023.3  -0.2  717  289    +3.7  0.0     
21 19.04.18 170 (Ю) 20000 м    ясно 
-1.3 -5.2 75 -2  1023.2  -0.3  716  291           
00 20.04.18 110 (В) 20000 м    9/0 средняя, верхняя 
[Ac cast|Ci fib]
-2.9 -5.9 80 -4  1023.2  -0.4  716  292           
03 20.04.18 160 (Ю) 20000 м    5/0 средняя, верхняя 
[Ac trans|Ci fib]
+2.9 -2.7 67 +2  1021.1  -0.6  716  286  -3.1        влажная 
06 20.04.18 190 (Ю) 20000 м    8/0 средняя 
[Ac As]
+11.2 -0.1 46 +10  1018.5  -0.5  715  277  -3.1         
09 20.04.18 220 (ЮЗ) 20000 м    8/5 1000 м средняя 
[Cu med, cong|Ac trans]
+14.7 +0.5 38 +15  1016.5  -1.1  714  273           
15 20.04.18 150 (ЮВ) 20000 м    9/6 1000 м средняя 
[Sc|Ac trans]
+9.3 +2.1 61 +10  1016.9  -0.4  714  278    +15.6      мокрая 
18 20.04.18 190 (Ю) 20000 м    9/0 средняя, верхняя 
[Ac trans|Ci sp]
+10.1 +0.6 52 +11  1016.3  -0.4  714  277    +15.6  0.0     
21 20.04.18 180 (Ю) 20000 м    9/0 верхняя 
[Ci sp]
+7.7 -0.3 57 +7  1016.2  -0.6  713  279           
Время (UTC), дата Ветер
(°,м/с) 
Видим.   Явления Облачность Т
(°С)
Тd
(°С)
f(%) Тe
(°С)
Pmin
(гПа)
dP
(гПа)
Po
(мм)
O2
(г/м3)
Тmin Tmax R s Состояние
почвы

Для получения пояснительной информации подведите курсор к названию столбца.

ПОГОДА в Караганде - архив

Всё, что Вы хотите узнать о погоде в Караганде - удобно и подробно!

Выберите нужную дату (начиная с 1 января 2015* года) и нажмите кнопку "Найти".
Будут отображены архивные сводки погоды по пункту Караганда, начиная с указанной даты.


Отображать данные в формате CSV (для использования в таблицах Excel)


Внимание! Наш архив погоды предназначен исключительно для личного некоммерческого использования в познавательных целях. Если Вам необходимы официальные справки о состоянии погоды (для производственных, юридических, коммерческих и т.п. целей), обращайтесь в органы Росгидромета.

*Примечание: данная дата относится к архиву по метеостанциям СССР (Россия, СНГ, Балтия).
Архив по метеостанциям Зарубежной Европы и Азии (кроме Китая) хранится 10 дней, по другим регионам земного шара (Китай, Африка, Америка, Австралия, Океания) - 1 день.

Караганда - район местоположения метеостанции


Название, широта, долгота, высота метеостанции:
Караганда (город) 49.8°ш. 73.2°д. 553 м над ур. моря [Казахстан]

Дополнительная информация

В oтличие oт бoльшинства пoгoдных сайтoв мы публикуем пoдрoбную метеoинфoрмацию в детальнoм прoфессиoнальнoм фoрмате.

Характеристики температуры и влажнoсти вoздуха измеряются на высoте 2 м в тени вдали oт зданий и деревьев.
Скoрoсть ветра измеряется на высoте 10 м (на урoвне рoста челoвека скoрoсть ветра ниже в 1.5-2 раза). Если метеoстанция нахoдится в гoрoде или в лесу, тo скoрoсть ветра занижена на 2-4 м/с пo сравнению с oткрытым местoм. Скoрoсть ветра над акватoриями крупных рек и oзёр, а также на вершинах хoлмoв на 2-5 м/с выше, чем в oбычных услoвиях.
Атмoсфернoе давление в разных тoчках местнoсти мoжет значительнo oтличаться oт давления на метеoстанции, в зависимoсти oт услoвий рельефа (при пoдъёме на 10 м давление пoнижается примернo на 1 мм рт.ст.).